Temp: 19.2°C   Baro: 1017.5mb
  Wind: 0.0mph   Dir: W (274°)
  Rain: 0.2mm (0.0mm/hr)
  Solar: 0W/m2  Hum: 83%

10 day detailed forecast for Bath, United Kingdom

Last update: 06.08.2020 13:27
Next update: 06.08.2020 19:37
Latitude: 51.38° N
Longitude: 2.36° W
meteogram
    Temperature Precipitation Pressure Wind Humidity Clouds Fog
 04:42     19:48 Today
21:00   1017.9 mb 6 mph 91% 1%
22:00   1018.2 mb 6 mph 93% 0%
23:00   1018.3 mb 5 mph 93% 0%
 04:44     19:46 Tomorrow
00:00   1018.4 mb 5 mph 94% 0%
01:00   1018.3 mb 5 mph 94% 0%
02:00   1018.1 mb 5 mph 95% 0%
03:00   1018.1 mb 4 mph 96% 0%
04:00   1018.1 mb 4 mph 97% 0%
05:00   1018.4 mb 3 mph 94% 0%
06:00   1018.5 mb 0 mph 92% 0%
07:00   1018.7 mb 1 mph 85% 0%
08:00   1018.9 mb 1 mph 76% 2%
09:00   1018.8 mb 1 mph 68% 2%
10:00   1018.8 mb 1 mph 61% 87%
11:00   1018.9 mb 1 mph 59% 98%
12:00   1018.7 mb 1 mph 58% 78%
13:00   1018.8 mb 3 mph 58% 100%
14:00   1018.4 mb 2 mph 59% 100%
15:00   1018.3 mb 3 mph 67% 98%
16:00   1017.9 mb 4 mph 63% 67%
17:00   1018.0 mb 5 mph 63% 16%
18:00   1018.3 mb 5 mph 64% 44%
19:00   1018.6 mb 6 mph 69% 67%
20:00   1019.1 mb 6 mph 82% 74%
21:00   1019.7 mb 5 mph 89% 90%
22:00   1020.1 mb 5 mph 89% 86%
23:00   1020.2 mb 6 mph 88% 91%
 04:45     19:44 Saturday 08.08.2020
00:00   1020.4 mb 5 mph 91% 19%
01:00   1020.5 mb 5 mph 91% 6%
02:00   1020.6 mb 7 mph 93% 13%
03:00   1020.7 mb 7 mph 95% 27%
04:00   1020.8 mb 8 mph 96% 56%
05:00   1020.9 mb 8 mph 96% 48%
06:00   1021.3 mb 9 mph 93% 41%
07:00   1021.6 mb 9 mph 87% 49%
08:00   1021.6 mb 10 mph 81% 90%
09:00   1021.5 mb 11 mph 74% 97%
10:00   1021.4 mb 11 mph 68% 97%
11:00   1021.2 mb 11 mph 63% 97%
12:00   1020.9 mb 10 mph 59% 97%
13:00   1020.7 mb 10 mph 56% 98%
14:00   1020.3 mb 9 mph 53% 81%
15:00   1020.0 mb 9 mph 51% 26%
16:00   1019.7 mb 9 mph 51% 2%
17:00   1019.3 mb 9 mph 51% 1%
18:00   1019.1 mb 8 mph 55% 2%
19:00   1019.2 mb 10 mph 59% 4%
20:00   1019.8 mb 12 mph 63% 4%
21:00   1020.2 mb 12 mph 67% 6%
22:00   1020.5 mb 11 mph 71% 0%
23:00   1020.8 mb 10 mph 75% 3%
 04:47     19:42 Sunday 09.08.2020
00:00   1020.6 mb 9 mph 78% 27%
01:00   1020.3 mb 9 mph 81% 22%
02:00   1020.1 mb 9 mph 84% 5%
03:00   1020.0 mb 10 mph 87% 7%
04:00   1019.8 mb 10 mph 90% 19%
05:00   1019.7 mb 10 mph 91% 49%
06:00   1019.6 mb 11 mph 87% 65%
12:00   1017.3 mb 12 mph 57% 89%
18:00 0.1 mm 1014.8 mb 10 mph 58% 91%
 04:48     19:40 Monday 10.08.2020
00:00   1014.8 mb 8 mph 75% 97%
06:00 2.0 mm 1014.3 mb 6 mph 93% 100%
12:00 0.2 mm 1013.8 mb 7 mph 67% 72%
18:00 2.7 mm 1013.3 mb 5 mph 85% 34%
 04:50     19:38 Tuesday 11.08.2020
00:00 0.1 mm 1014.5 mb 4 mph 99% 73%
06:00   1014.9 mb 2 mph 99% 100%
12:00 0.1 mm 1015.7 mb 4 mph 63% 91%
18:00   1015.6 mb 7 mph 70% 0%
 04:51     19:37 Wednesday 12.08.2020
00:00   1016.5 mb 5 mph 97% 56%
06:00   1016.3 mb 6 mph 97% 98%
12:00   1016.3 mb 2 mph 61% 30%
18:00 0.2 mm 1015.1 mb 7 mph 65% 99%
 04:53     19:35 Thursday 13.08.2020
00:00 3.1 mm 1016.1 mb 1 mph 94% 100%
06:00 1.5 mm 1015.1 mb 2 mph 97% 100%
12:00 11.6 mm 1015.2 mb 5 mph 95% 100%
18:00 1.4 mm 1013.5 mb 9 mph 77% 100%
 04:54     19:33 Friday 14.08.2020
00:00   1013.4 mb 7 mph 97% 77%
06:00   1012.6 mb 6 mph 93% 100%
12:00 0.3 mm 1012.9 mb 5 mph 76% 86%
18:00 0.5 mm 1012.4 mb 7 mph 74% 45%
 04:56     19:31 Saturday 15.08.2020
00:00 0.1 mm 1013.6 mb 3 mph 99% 37%
06:00 0.1 mm 1013.6 mb 2 mph 99% 100%
12:00 0.5 mm 1013.7 mb 2 mph 65% 47%
18:00 0.5 mm 1013.1 mb 7 mph 78% 95%